Regional Weather Roundup
Issued by NWS

Home | Current Version | Previous Version | Graphics & Text | Print | Product List | Glossary On
Versions: 1 2 3 4 5 6 7 8 9 10 11 12 13 14 15 16 17 18 19 20 21 22 23 24 25 26 27 28 29 30 31 32 33 34 35 36 37 38 39 40 41 42 43 44 45 46 47 48 49 50
000
ASUS43 KMKX 261000
RWRWI

WISCONSIN REGIONAL WEATHER ROUNDUP
NATIONAL WEATHER SERVICE MILWAUKEE/SULLIVAN WI
500 AM CDT MON SEP 26 2016

NOTE: "FAIR" INDICATES FEW OR NO CLOUDS BELOW 12,000 FEET WITH NO
SIGNIFICANT WEATHER AND/OR OBSTRUCTIONS TO VISIBILITY.

WIZ001-002-006>008-014>016-023>028-261100-
NORTHWEST WISCONSIN

CITY           SKY/WX    TMP DP  RH WIND       PRES   REMARKS
SUPERIOR ARPT  DRIZZLE   50  48  93 W12G20    29.73S
ASHLAND        LGT RAIN  50  48  93 SW16G25   29.69F
HAYWARD        LGT RAIN  49  46  90 VRB7G18   29.78S
SIREN          DRIZZLE   50  45  84 W9G16     29.83F
CUMBERLAND     DRIZZLE   48  43  81 W17G24    29.84S
RICE LAKE      CLOUDY    51  44  77 W13G18    29.86S
CHETEK         NOT AVBL
LADYSMITH      CLOUDY    52  46  79 W15G24    29.82F
EAU CLAIRE     NOT AVBL
MENOMONIE      CLEAR     54  44  70 W12G18    29.89S
NEW RICHMOND   PTCLDY    51  43  75 W10       29.89F
OSCEOLA        CLOUDY    52  45  75 W13       29.91F
$$

WIZ003>005-009-010-017-018-261100-
NORTH CENTRAL WISCONSIN

CITY           SKY/WX    TMP DP  RH WIND       PRES   REMARKS
MANITOWISH WTR NOT AVBL
ARBOR VITAE    CLOUDY    52  49  91 W9G20     29.74F FOG
WOODRUFF       CLOUDY    52  49  91 W9G20     29.74F FOG
RHINELANDER    CLOUDY    49  46  90 W13G23    29.76F
EAGLE RIVER    DRIZZLE   49  47  93 SW13G18   29.73F
LAND O LAKES   CLOUDY    50  46  85 SW6       29.73F
PHILLIPS       CLOUDY    48  46  91 SW8       29.77S
TOMAHAWK       CLOUDY    49  43  79 W6        29.79F
MEDFORD        CLOUDY    49  46  86 SW8G18    29.81F
MERRILL        CLOUDY    51  44  79 W14       29.80F
$$

WIZ029-030-035-036-043>047-261100-
CENTRAL WISCONSIN

CITY           SKY/WX    TMP DP  RH WIND       PRES   REMARKS
WAUSAU         MOCLDY    50  43  77 W13       29.80F
MOSINEE        CLOUDY    50  45  81 SW14      29.84F
MARSHFIELD     CLOUDY    52  43  71 W14G23    29.84F
STEVENS POINT  CLEAR     49  43  79 W9G16     29.86S
WAUPACA        PTCLDY    55  45  71 W12G17    29.86F
WAUTOMA        PTCLDY    53  46  77 W10       29.88F
WISC RAPIDS    MOCLDY    52  46  80 W8        29.88F
CAMP DOUGLAS   CLEAR     52  46  82 W13G20    29.91S
$$

WIZ011>013-019>022-031-037>040-048>050-261100-
NORTHEAST WISCONSIN

CITY           SKY/WX    TMP DP  RH WIND       PRES   REMARKS
ANTIGO         CLOUDY    48  44  84 W12       29.80F
SHAWANO        CLOUDY    55  45  68 W12G18    29.82F
OCONTO         NOT AVBL
STURGEON BAY   MOCLDY    55  45  68 W18G28    29.80R
GREEN BAY      CLOUDY    54  46  74 W12G25    29.83F
MANITOWOC      NOT AVBL
APPLETON       CLOUDY    52  41  66 SW13      29.84S
CLINTONVILLE   NOT AVBL
OSHKOSH        CLOUDY    55  45  68 W8        29.87S
$$

WIZ032>034-041-042-053>061-261100-
SOUTHWEST WISCONSIN

CITY           SKY/WX    TMP DP  RH WIND       PRES   REMARKS
LA CROSSE      CLEAR     55  45  68 W12       29.94S
SPARTA         CLEAR     51  47  85 W6        29.93S
VIROQUA        CLEAR     49  45  85 W8        29.96S
BOSCOBEL       CLEAR     54  46  74 SW6       29.98S
PRAIRIE DU CHI CLEAR     54  43  66 W9        29.99S
PLATTEVILLE    CLEAR     52  49  89 W8        30.00S
$$

WIZ056-057-062-063-064-067-068-261100-
SOUTH CENTRAL WISCONSIN

CITY           SKY/WX    TMP DP  RH WIND       PRES   REMARKS
REEDSBURG      NOT AVBL
BARABOO/DELLS  CLEAR     52  46  81 W8        29.92F
LONE ROCK      NOT AVBL
MINERAL POINT  CLEAR     52  50  93 W8        29.97F
MADISON        PTCLDY    56  48  74 VRB6      29.94S
MIDDLETON      PTCLDY    55  49  81 W10G16    29.95R
WATERTOWN      CLOUDY    55  51  83 SW6       29.93S
MONROE         CLOUDY    54  48  82 W12       29.98R
JANESVILLE     CLOUDY    57  50  77 W8        29.97R
$$

WIZ051-052-058>065-066-070>072-261100-
SOUTHEAST WISCONSIN

CITY           SKY/WX    TMP DP  RH WIND       PRES   REMARKS
MILWAUKEE      CLOUDY    60  48  64 W10       29.94R
WAUKESHA       CLOUDY    54  46  76 W7        29.94S
MILWAUKEE/TIMM CLOUDY    57  46  67 W9        29.93S
RACINE         CLOUDY    59  48  67 W9        29.95R
BURLINGTON     CLOUDY    56  48  75 W7        29.96R
KENOSHA        CLOUDY    58  50  75 W12       29.95R
FOND DU LAC    CLOUDY    55  47  74 SW8       29.90R
SHEBOYGAN      CLOUDY    57  45  64 W12       29.88R
WEST BEND      CLOUDY    55  46  71 W8        29.91R
JUNEAU         CLOUDY    54  49  84 SW9       29.93R
$$

LSZ147-162-261100-
LAKE SUPERIOR

STATION/POSITION TIME  TEMP    WIND        PRES    WAVE
                       AIR SEA DIR/SP/G            HT/PER
                 (UTC) (F)     (DEG/KT/KT) (MB)    (FT/S)
W MID LAKE BUOY  0850   56 59  240/ 25/ 31 1001.9F   7/ 7
DEVILS ISLAND    0900   53     230/ 28/ 33 1003.4F
SAXON HARBOR     0940   52     210/ 10/ 18 1005.4F
$$

LMZ867-665-643>646-261100-
LAKE MICHIGAN

STATION/POSITION TIME  TEMP    WIND        PRES    WAVE
                       AIR SEA DIR/SP/G            HT/PER
                 (UTC) (F)     (DEG/KT/KT) (MB)    (FT/S)
CHAMBERS ISLAND  0900   59     220/ 10/ 17 1007.5F
N MID LAKE BUOY  0850   62 67  250/ 23/ 27 1006.0F   4/ 6
NORTHPORT PIER   0900   60     270/  4/ 13 1007.5F
KEWAUNEE LAKESHO 0900   58     260/ 11/ 18 1009.0F
SHEBOYGAN LAKESH 0900   60     270/ 11/ 14 1011.2F
PORT WASHINGTON  0940   60     260/  7/ 11 1013.5R
ATWATER BUOY     0900   59 53  260/ 14/ 16 1013.1R
MILWAUKEE LAKESH 0910   60     280/ 10/ 13   N/A
S MID LAKE BUOY  0850   64 71  280/ 19/ 23 1012.0R   4/ 4
KENOSHA   LAKESH 0900   61     280/  8/ 14 1013.5S
$$

TC  - TEMPERATURE IN CELSIUS
VSB - VISIBILITY IN STATUTE MILES
WCI - WIND CHILL INDEX
HX  - HEAT INDEX





USA.gov is the U.S. government's official web portal to all federal, state and local government web resources and services.